Location: Acton
(51.4942°N, 0.2232°W)
Time: 15:32:35
(UTC+00:00)

MOS 1 - Pass Details

Date: 18 September 2020
Orbit: 878 x 891 km, 99.1° (Epoch: 27 October)

Event Time Altitude Azimuth Distance (km) Brightness Sun altitude
Exits shadow 19:23:24 - 154° (SSE) 2,990 6.6 -12.4°
Reaches altitude 10° 19:24:31 10° 153° (SSE) 2,554 6.3 -12.6°
Maximum altitude 19:30:11 72° 70° (ENE) 939 4.3 -13.4°
Drops below altitude 10° 19:35:53 10° 347° (NNW) 2,573 7.2 -14.2°
Sets 19:38:18 0° 346° (NNW) 3,517 8.0 -14.6°
